Time,TemperatureF,DewpointF,PressureIn,WindDirection,WindDirectionDegrees,WindSpeedMPH,WindSpeedGustMPH,Humidity,HourlyPrecipIn,Conditions,Clouds,dailyrainin,SoftwareType,DateUTC
2013-01-03 00:30:00,15.8,12.6,30.20,SE,130,3.0,3.0,87,0.00,,,0.00,Wunderground v.1.15,2013-01-03 05:30:00,
2013-01-03 01:00:00,14.9,11.7,30.20,SE,126,2.0,2.0,87,0.00,,,0.00,Wunderground v.1.15,2013-01-03 06:00:00,
2013-01-03 01:30:00,14.6,11.4,30.19,ESE,122,3.0,6.0,87,0.00,,,0.00,Wunderground v.1.15,2013-01-03 06:30:00,
2013-01-03 02:00:00,13.4,10.3,30.19,ESE,123,0.0,0.0,87,0.00,,,0.00,Wunderground v.1.15,2013-01-03 07:00:00,
2013-01-03 02:30:00,14.0,11.1,30.20,East,98,0.0,0.0,88,0.00,,,0.00,Wunderground v.1.15,2013-01-03 07:30:00,
2013-01-03 03:00:00,14.2,11.3,30.18,ESE,121,0.0,0.0,88,0.00,,,0.00,Wunderground v.1.15,2013-01-03 08:00:00,
2013-01-03 03:30:00,14.2,11.3,30.18,SE,136,0.0,5.0,88,0.00,,,0.00,Wunderground v.1.15,2013-01-03 08:30:00,
2013-01-03 04:00:00,14.5,11.6,30.17,SE,145,0.0,0.0,88,0.00,,,0.00,Wunderground v.1.15,2013-01-03 09:00:00,
2013-01-03 04:30:00,14.7,11.8,30.17,SE,146,0.0,0.0,88,0.00,,,0.00,Wunderground v.1.15,2013-01-03 09:30:00,
2013-01-03 05:00:00,15.6,12.7,30.16,SSE,157,0.0,0.0,88,0.00,,,0.00,Wunderground v.1.15,2013-01-03 10:00:00,
2013-01-03 05:30:00,16.5,13.6,30.15,SSE,157,0.0,0.0,88,0.00,,,0.00,Wunderground v.1.15,2013-01-03 10:30:00,
2013-01-03 06:00:00,17.2,14.5,30.16,South,175,0.0,0.0,89,0.00,,,0.00,Wunderground v.1.15,2013-01-03 11:00:00,
2013-01-03 06:30:00,18.0,15.3,30.15,SSW,203,2.0,2.0,89,0.00,,,0.00,Wunderground v.1.15,2013-01-03 11:30:00,
2013-01-03 07:00:00,18.7,15.7,30.14,SSW,200,0.0,0.0,88,0.00,,,0.00,Wunderground v.1.15,2013-01-03 12:00:00,
2013-01-03 07:30:00,19.3,16.3,30.15,SSW,208,4.0,4.0,88,0.00,,,0.00,Wunderground v.1.15,2013-01-03 12:30:00,
2013-01-03 08:00:00,19.1,16.1,30.14,SSW,206,0.0,0.0,88,0.00,,,0.00,Wunderground v.1.15,2013-01-03 13:00:00,
2013-01-03 08:30:00,19.6,16.9,30.13,South,183,2.0,2.0,89,0.00,,,0.00,Wunderground v.1.15,2013-01-03 13:30:00,
2013-01-03 09:00:00,20.1,17.4,30.12,SSW,200,4.0,4.0,89,0.00,,,0.00,Wunderground v.1.15,2013-01-03 14:00:00,
2013-01-03 09:30:00,20.8,17.8,30.13,SSW,213,4.0,4.0,88,0.00,,,0.00,Wunderground v.1.15,2013-01-03 14:30:00,
2013-01-03 10:00:00,21.3,18.6,30.12,SSW,196,2.0,5.0,89,0.00,,,0.00,Wunderground v.1.15,2013-01-03 15:00:00,
2013-01-03 10:30:00,22.0,19.0,30.11,SSW,210,6.0,6.0,88,0.00,,,0.00,Wunderground v.1.15,2013-01-03 15:30:00,
2013-01-03 11:00:00,22.4,19.1,30.10,SW,219,7.0,7.0,87,0.00,,,0.00,Wunderground v.1.15,2013-01-03 16:00:00,
2013-01-03 11:30:00,22.9,19.6,30.08,SW,217,7.0,7.0,87,0.00,,,0.00,Wunderground v.1.15,2013-01-03 16:30:00,
2013-01-03 12:00:00,23.8,20.2,30.06,WSW,238,10.0,10.0,86,0.00,,,0.00,Wunderground v.1.15,2013-01-03 17:00:00,
2013-01-03 12:30:00,24.3,20.4,30.04,SSW,200,12.0,17.0,85,0.00,,,0.00,Wunderground v.1.15,2013-01-03 17:30:00,
2013-01-03 13:00:00,25.2,21.3,30.02,SSW,213,11.0,11.0,85,0.00,,,0.00,Wunderground v.1.15,2013-01-03 18:00:00,
2013-01-03 13:30:00,25.8,21.1,30.01,SW,234,11.0,15.0,82,0.00,,,0.00,Wunderground v.1.15,2013-01-03 18:30:00,
2013-01-03 14:00:00,26.0,21.5,30.00,WSW,241,12.0,12.0,83,0.00,,,0.00,Wunderground v.1.15,2013-01-03 19:00:00,
2013-01-03 15:00:00,25.8,21.9,30.00,SW,221,12.0,12.0,85,0.00,,,0.00,Wunderground v.1.15,2013-01-03 20:00:00,
2013-01-03 15:30:00,26.1,21.9,29.99,SW,233,10.0,21.0,84,0.00,,,0.00,Wunderground v.1.15,2013-01-03 20:30:00,
2013-01-03 16:00:00,26.1,22.5,29.99,SW,215,13.0,17.0,86,0.00,,,0.00,Wunderground v.1.15,2013-01-03 21:00:00,
2013-01-03 16:30:00,25.8,22.7,30.00,SSW,213,13.0,13.0,88,0.00,,,0.00,Wunderground v.1.15,2013-01-03 21:30:00,
2013-01-03 17:00:00,26.0,23.2,30.00,SW,229,11.0,11.0,89,0.00,,,0.00,Wunderground v.1.15,2013-01-03 22:00:00,
2013-01-03 17:30:00,26.4,23.6,30.00,SW,225,10.0,10.0,89,0.00,,,0.00,Wunderground v.1.15,2013-01-03 22:30:00,
2013-01-03 18:00:00,27.0,24.2,30.01,SW,217,10.0,11.0,89,0.00,,,0.00,Wunderground v.1.15,2013-01-03 23:00:00,
2013-01-03 18:30:00,27.3,24.5,30.01,SSW,212,7.0,7.0,89,0.00,,,0.00,Wunderground v.1.15,2013-01-03 23:30:00,
2013-01-03 19:00:00,27.9,25.1,30.02,WSW,246,16.0,16.0,89,0.00,,,0.00,Wunderground v.1.15,2013-01-04 00:00:00,
2013-01-03 19:30:00,27.5,24.4,30.03,West,261,15.0,15.0,88,0.00,,,0.00,Wunderground v.1.15,2013-01-04 00:30:00,
2013-01-03 20:00:00,27.2,24.1,30.03,WSW,252,14.0,14.0,88,0.00,,,0.00,Wunderground v.1.15,2013-01-04 01:00:00,
2013-01-03 20:30:00,27.0,23.9,30.03,West,271,13.0,17.0,88,0.00,,,0.00,Wunderground v.1.15,2013-01-04 01:30:00,
2013-01-03 21:00:00,26.8,23.7,30.03,SW,218,12.0,12.0,88,0.00,,,0.00,Wunderground v.1.15,2013-01-04 02:00:00,
2013-01-03 21:30:00,26.4,23.3,30.03,WSW,250,11.0,21.0,88,0.00,,,0.00,Wunderground v.1.15,2013-01-04 02:30:00,
2013-01-03 22:00:00,26.2,23.1,30.03,SW,229,13.0,13.0,88,0.00,,,0.00,Wunderground v.1.15,2013-01-04 03:00:00,
2013-01-03 22:30:00,25.9,22.8,30.03,SW,236,10.0,10.0,88,0.00,,,0.00,Wunderground v.1.15,2013-01-04 03:30:00,
2013-01-03 23:00:00,25.7,22.6,30.02,SW,233,13.0,13.0,88,0.00,,,0.00,Wunderground v.1.15,2013-01-04 04:00:00,
2013-01-03 23:30:00,25.5,22.2,30.03,WSW,246,11.0,22.0,87,0.00,,,0.00,Wunderground v.1.15,2013-01-04 04:30:00,